User: anonymous   Login
Location: Dorothea Dix Park
(35.7688°N, 78.6619°W)
Time: 08:56:45
(UTC-04:00)
Language:

ISS - Orbit

View from above orbital plane
View from above orbital plane
View from above satellite
View from above satellite

Ground track
Ground track

The orbit data is extracted from the following two-line orbital elements,

1 25544U 98067A   19168.49118742  .00016717  00000-0  10270-3 0  9031
2 25544  51.6420 359.7977 0008021  54.6491 305.5409 15.51216362 15292
Epoch (UTC): 17 June 2019 11:47:18
Eccentricity: 0.0008021
inclination: 51.6420°
perigee height: 408 km
apogee height: 418 km
right ascension of ascending node: 359.7977°
argument of perigee: 54.6491°
revolutions per day: 15.51216362
mean anomaly at epoch: 305.5409°
orbit number at epoch: 1529

The dashed part of the orbit path shows where the satellite is in the earth's shadow,  

DLR